Flag for U.S.A. Weather past 2 weeks in Breckenridge, Colorado, U.S.A.

Now
55 °F

Overcast.


Feels Like: 55 °F
Forecast: 53 / 76 °F
Wind: 5 mph from Southwest

Location: Copper Mountain - Red Cliff Pass

Current Time: Jul 26, 2014 at 7:24:56 AM

Latest Report: Jul 26, 2014 at 6:56 AM


Visibility: 10 mi

Pressure: 30.70 "Hg

Humidity: 47%

Dew point: 36 °F

Location of BreckenridgeLocation

Historic Weather in Breckenridge — Graph

°F

Breckenridge temperature yesterday

Maximum temperature yesterday: 72 °F (at 3:56 PM)
Minimum temperature yesterday: 48 °F (at 12:56 AM)
Average temperature yesterday: 57 °F

Past Weeks' High & Low Weather Summary

 TemperatureHumidityPressure
High72 °F (Jul 25, 3:56 PM)87% (Jul 12, 2:56 AM)30.90 "Hg (Jul 12, 2:56 AM)
Low45 °F (Jul 16, 2:16 AM)12% (Jul 22, 5:56 PM)30.44 "Hg (Jul 16, 5:56 PM)
Average56 °F48%30.67 "Hg
* Reported Jul 11 5:16 AM — Jul 26 5:56 AM, Breckenridge, Weather by CustomWeather, © 2014

Note: Actual official high and low records may vary slightly from our data, if they occured in-between our weather recording intervals... More about our weather records

Advertising

Breckenridge weather history for previous 24 hours

 ConditionsComfort  
Time TempWeatherWind HumidityBarometerVisibility
5:56 AM
Jul 26
54 °FPassing clouds.15 mph51%30.69 "Hg10 mi
5:36 AM54 °FPassing clouds.12 mph54%30.69 "Hg10 mi
5:16 AM54 °FClear.14 mph51%30.69 "Hg10 mi
4:56 AM54 °FClear.9 mph54%30.69 "Hg10 mi
4:36 AM54 °FClear.15 mph54%30.69 "Hg10 mi
4:16 AM54 °FClear.13 mph54%30.68 "Hg10 mi
3:56 AM54 °FClear.20 mph54%30.68 "Hg10 mi
3:36 AM54 °FClear.18 mph54%30.68 "Hg10 mi
3:16 AM54 °FClear.15 mph54%30.69 "Hg10 mi
2:56 AM54 °FClear.17 mph54%30.69 "Hg10 mi
2:36 AM54 °FClear.8 mph58%30.69 "Hg10 mi
2:16 AM54 °FClear.17 mph58%30.68 "Hg10 mi
1:56 AM54 °FClear.10 mph63%30.69 "Hg10 mi
1:36 AM54 °FClear.13 mph63%30.69 "Hg10 mi
1:16 AM54 °FClear.14 mph63%30.69 "Hg10 mi
12:56 AM54 °FClear.10 mph63%30.69 "Hg10 mi
12:36 AM54 °FClear.9 mph58%30.69 "Hg10 mi
12:16 AM54 °FClear.10 mph63%30.69 "Hg10 mi
11:56 PM
Jul 25
54 °FClear.9 mph58%30.69 "Hg10 mi
11:36 PM54 °FClear.9 mph58%30.70 "Hg10 mi
11:16 PM54 °FClear.8 mph54%30.70 "Hg10 mi
10:56 PM54 °FClear.8 mph54%30.69 "Hg10 mi
10:36 PM54 °FClear.7 mph54%30.69 "Hg10 mi
10:16 PM54 °FClear.13 mph54%30.69 "Hg10 mi
9:56 PM54 °FClear.10 mph54%30.69 "Hg10 mi
9:36 PM54 °FPassing clouds.7 mph54%30.68 "Hg10 mi
8:56 PM54 °FScattered clouds.7 mph67%30.67 "Hg10 mi
8:36 PM54 °FSunny.14 mph67%30.67 "Hg10 mi
8:16 PM54 °FScattered clouds.7 mph67%30.66 "Hg10 mi
7:56 PM54 °FBroken clouds.5 mph67%30.66 "Hg10 mi
7:36 PM54 °FMostly cloudy.10 mph67%30.68 "Hg10 mi
7:16 PM54 °FCloudy.9 mph67%30.68 "Hg10 mi
6:56 PM52 °FThunderstorms. Mostly cloudy.12 mph82%30.68 "Hg1 mi
6:36 PM54 °FThunderstorms. More clouds than sun.15 mph77%30.71 "Hg2 mi
5:56 PM59 °FThundershowers. Broken clouds.18 mph51%30.67 "Hg10 mi
5:36 PM59 °FThunderstorms. Sunny.25 mph48%30.66 "Hg10 mi
5:16 PM61 °FScattered clouds.22 mph42%30.65 "Hg10 mi
4:56 PM61 °FThunderstorms. Overcast.21 mph42%30.66 "Hg10 mi
4:36 PM64 °FThundershowers. Overcast.20 mph32%30.66 "Hg10 mi
4:16 PM64 °FBroken clouds.9 mph32%30.66 "Hg10 mi
3:56 PM72 °FScattered clouds.16 mph27%30.66 "Hg10 mi
3:36 PM70 °FScattered clouds.8 mph29%30.67 "Hg10 mi
3:16 PM66 °FScattered clouds.16 mph35%30.67 "Hg10 mi
2:56 PM63 °FCloudy.15 mph45%30.68 "Hg10 mi
2:36 PM66 °FThundershowers. Cloudy.15 mph40%30.68 "Hg10 mi
1:56 PM61 °FMostly cloudy.20 mph48%30.69 "Hg10 mi
1:36 PM61 °FCloudy.20 mph42%30.69 "Hg10 mi
1:16 PM59 °FMostly cloudy.24 mph42%30.69 "Hg10 mi
12:56 PM63 °FThundershowers. Broken clouds.29 mph39%30.68 "Hg10 mi
12:36 PM64 °FThunderstorms. Cloudy.16 mph34%30.69 "Hg10 mi
12:16 PM64 °FThunderstorms. Cloudy.14 mph34%30.69 "Hg10 mi
11:56 AM63 °FBroken clouds.16 mph37%30.69 "Hg10 mi
11:36 AM61 °FMore clouds than sun.20 mph39%30.70 "Hg10 mi
11:16 AM61 °FPartly sunny.22 mph42%30.70 "Hg10 mi
10:56 AM59 °FBroken clouds.16 mph45%30.70 "Hg10 mi
10:36 AM61 °FCloudy.17 mph48%30.70 "Hg10 mi
10:16 AM61 °FPartly sunny.14 mph52%30.70 "Hg10 mi
9:55 AM61 °FBroken clouds.8 mph52%30.70 "Hg10 mi
9:36 AM59 °FScattered clouds.9 mph55%30.69 "Hg10 mi
8:56 AM59 °FSunny.6 mph55%30.69 "Hg10 mi
8:36 AM57 °FSunny.8 mph55%30.69 "Hg10 mi
7:56 AM55 °FSunny.5 mph59%30.69 "Hg10 mi
7:36 AM54 °FSunny.14 mph58%30.68 "Hg10 mi
Weather by CustomWeather, © 2014

See weather overviewHow to use our weather pages